OBJECT F, 60750

Orbit data source: Space-Track

You're viewing an Uncataloged Satellite

Recently launched and/or uncataloged satellites may have evolving metadata. Metadata may include but not limited to: Owner, Maufacturer, Bus, Motor, and Mission.

OBJECT F, 60750 is a satellite owned by Xiamen Tianwei (CN) in SSO that was launched on Thu, 29 Aug 2024 UTC via a GUSHENXING 1 launch vehicle from the Yellow Sea Launch Area, China (YSLA). Unknown objects in Earth's orbit typically refer to objects detected orbiting the Earth but have not yet been identified or cataloged. These objects could be anything from previously untracked satellites, spent rocket stages, debris from satellite collisions, or even natural meteoroids temporarily captured by Earth's gravity.

Loading next visibility...
Identifier
60750, 2024-153F
Orbit
SSO
Country
Flag of CNCN / PRC
Related business
None
Manufacturer
Hangsheng
Mission
Operational Commercial Imaging
Bus & Motor
TFG, Unknown motor
Mass
~50 kg wet, ~50 kg dry
Launch date (UTC)
2024-08-29 (1 year ago)
Launch vehicle
GUSHENXING 1
Launch site
Yellow Sea Launch Area, China (YSLA)
Object type
Unknown
Shape & HBR
Box + 1 Pan, 2.5 m
Radar Cross Section
5.339 m², Medium (>0.1 m² and < 1m²)

Expand to show TLE details & history
Last TLE update: 3 days ago

TLE from 3 days ago
0 OBJECT F
1 60750U 24153F   25255.64559617  .00001373  00000-0  74116-4 0  9992
2 60750  97.6275  22.6177 0010341 161.5748 198.5861 15.16438564 57601
Epoch: 2025-09-12T15:29Z
TLE epoch observation values (Epoch: 2025-09-12T15:29:39.509Z)
Latitude
-0.00001°
Longitude
158.31275°
Altitude
526.454 km
Speed
7.596 km/s
True Right ascension
01h 30m 28s
True Declination
0° 00' 00"
Sunlit
Object was in full shadow at epoch
Visualization orbit readout
Latitude
Unknown
Longitude
Unknown
Altitude
Unknown
Speed
Unknown
Apparent Right ascension
Unknown
Apparent Declination
Unknown
Sunlit
N/A
Visualization observer readout
Local Sidereal Time
02:56:57
Azimuth
Unknown
Elevation
Unknown
Doppler factor
Unknown
Orbital elements
Apogee altitude
520.722 km
Perigee altitude
506.468 km
Semi-major axis
6,891.732 km
Eccentricity
0.00103
Inclination
97.6275°
RAAN
22.6177°
Arg. of periapsis
161.5748°
True anomaly
198.54838°
Mean anomaly
198.5861°
Eccentric anomaly
198.56723°
Mean motion
3.79359 °/min
Orbital period
94.9 mins
BSTAR
0.000074116
Loading maneuver chart data...
Computing Atmospheric mass density...
Loading historical data...
Loading historical data...
Loading historical data...
Loading historical data...
Loading historical data...
Loading historical data...
Loading historical data...

Documentation

Showing up to 5 results
|